Flag for Chad Weather past 2 weeks in Ndjamena, Chad

Now
90 °F

Duststorm.


Feels Like: 86 °F
Forecast: 63 / 91 °F
Wind: 12 mph from North

Location: Ndjamena

Current Time: Jan 29, 2015 at 4:20:36 PM

Latest Report: Jan 29, 2015 at 3:00 PM


Visibility: 3 mi

Pressure: 29.83 "Hg

Humidity: 18%

Dew point: 41 °F

Location of NdjamenaLocation

Historic Weather in Ndjamena — Graph

°F

Ndjamena temperature yesterday

Maximum temperature yesterday: 95 °F (at 3:00 PM)
Minimum temperature yesterday: 68 °F (at 6:00 AM)
Average temperature yesterday: 80 °F

Past Weeks' High & Low Weather Summary

 TemperatureHumidityPressure
High102 °F (Jan 26, 3:00 PM)63% (Jan 15, 6:00 AM)30.07 "Hg (Jan 15, 6:00 AM)
Low54 °F (Jan 18, 7:00 AM)13% (Jan 22, 5:00 PM)29.71 "Hg (Jan 18, 11:00 PM)
Average78 °F32%29.89 "Hg
* Reported Jan 14 3:00 PM — Jan 29 3:00 PM, Ndjamena, Weather by CustomWeather, © 2014

Note: Actual official high and low records may vary slightly from our data, if they occured in-between our weather recording intervals... More about our weather records

Advertising

Ndjamena weather history for previous 24 hours

 ConditionsComfort  
Time TempWeatherWind HumidityBarometerVisibility
3:00 PM
Jan 29
90 °FDuststorm.12 mph18%29.83 "Hg3 mi
2:00 PM90 °FDuststorm.9 mph18%29.83 "Hg3 mi
1:00 PM86 °FDuststorm.9 mph20%29.86 "Hg1 mi
12:00 PM84 °FDuststorm.9 mph22%29.89 "Hg1 mi
11:00 AM81 °FDuststorm.12 mph24%29.95 "Hg1 mi
10:00 AM77 °FDuststorm.14 mph28%29.95 "Hg1 mi
9:00 AM72 °FDuststorm.13 mph29%29.95 "Hg1 mi
8:00 AM66 °FHaze.8 mph37%29.92 "Hg0 mi
7:00 AM64 °FHaze.5 mph37%29.92 "Hg0 mi
6:00 AM66 °FHaze.7 mph35%29.89 "Hg1 mi
5:00 AM66 °FHaze.7 mph35%29.89 "Hg1 mi
4:00 AM66 °FHaze.6 mph37%29.89 "Hg1 mi
3:00 AM68 °FHaze.6 mph38%29.89 "Hg1 mi
2:00 AM70 °FClear.5 mph38%29.89 "Hg4 mi
1:00 AM72 °FClear.8 mph36%29.89 "Hg10 mi
12:00 AM72 °FClear.8 mph44%29.89 "Hg10 mi
11:00 PM
Jan 28
72 °FClear.6 mph44%29.89 "Hg10 mi
10:00 PM75 °FClear.6 mph36%29.89 "Hg10 mi
9:00 PM77 °FClear.6 mph36%29.89 "Hg5 mi
8:00 PM81 °FHaze.8 mph34%29.86 "Hg3 mi
7:00 PM82 °FHaze.6 mph32%29.83 "Hg2 mi
6:00 PM88 °FClear.8 mph25%29.80 "Hg4 mi
5:00 PM91 °FClear.10 mph23%29.80 "Hg4 mi
4:00 PM93 °FClear.10 mph21%29.77 "Hg5 mi
Weather by CustomWeather, © 2014

See weather overviewHow to use our weather pages